Location: Hopewell Observatory
(38.8698°N, 77.6988°W)
Time: 03:33:50
(UTC-04:00)

Iridium 2 - Pass Details

Date: 26 May 2018
Orbit: 507 x 520 km, 85.5° (Epoch: 21 June)

Event Time Altitude Azimuth Distance (km) Brightness Sun altitude
Exits shadow 21:33:23 - 177° (S) 1,929 6.2 -11.7°
Reaches altitude 10° 21:33:50 10° 177° (S) 1,742 6.0 -11.8°
Maximum altitude 21:37:38 75° 92° (E) 541 3.6 -12.3°
Drops below altitude 10° 21:41:28 10° 7° (N) 1,761 6.9 -12.9°
Sets 21:43:37 0° 6° (N) 2,654 7.9 -13.2°
